User: anonymous   Login
Location: Del Oro Observatory
(38.3044°N, 104.8119°W)
Time: 06:48:21
(UTC-07:00)
Language:

Cosmos 1602 Rocket - Orbit

View from above orbital plane
View from above orbital plane
View from above satellite
View from above satellite

Ground track
Ground track

The orbit data is extracted from the following two-line orbital elements,

1 15332U 84105B   14329.50691681  .00000557  00000-0  65649-4 0  8199
2 15332 082.5340 341.5547 0020982 207.6400 263.7379 14.82871208628045
Epoch (UTC): 25 November 2014 12:09:57
Eccentricity: 0.0020982
inclination: 82.5340°
perigee height: 605 km
apogee height: 635 km
right ascension of ascending node: 341.5547°
argument of perigee: 207.6400°
revolutions per day: 14.82871208
mean anomaly at epoch: 263.7379°
orbit number at epoch: 62804

The dashed part of the orbit path shows where the satellite is in the earth's shadow,  

DLR